Torna al catalogo

STARLINK-31882

AttivoComunicazioniVLEO
NORAD 59855·PAYLOAD·🇺🇸 United States

Lanciato May 23, 2024 da Cape Canaveral Space Force Station

Loading…

Prossimi Passaggi (prossime 24 ore)

TLE

AggiornatoSource: CelesTrak SupGP

Epoca: Sep 15, 2026, 02:14 UTC

1 59855C 24097W   26258.09354167  .00009423  00000+0  34123-3 0  2583
2 59855  42.9996 277.7334 0001297 262.0777 114.0810 15.27579427    11

Traccia STARLINK-31882 in tempo reale con AllMySat

Download on the App Store